Location: Epalinges
(46.5518°N, 6.6683°E)
Time: 00:55:28
(UTC+00:00)

FALCON 9 DEB - Pass Details

Date: 20 June 2021
Orbit: 364 x 379 km, 53.0° (Epoch: 25 July)

Event Time Altitude Azimuth Distance (km) Brightness Sun altitude
Rises 02:06:33 0° 300° (WNW) 2,277 6.7 -12.1°
Reaches altitude 10° 02:08:38 10° 304° (NW) 1,419 5.7 -11.9°
Maximum altitude 02:11:47 63° 27° (NNE) 437 3.4 -11.5°
Drops below altitude 10° 02:14:54 10° 109° (ESE) 1,406 5.9 -11.2°
Sets 02:16:58 0° 113° (ESE) 2,254 7.0 -11.0°
